Showing default

OPS 9334 (DATS), 2865

Orbit data source: Space-Track

OPS 9334 (DATS), 2865 is a payload satellite owned by SAMSO (US) in GEO that was launched on Sat, 01 Jul 1967 UTC via a TITAN IIIC launch vehicle from the Air Force Eastern Test Range (AFETR). Payload-class satellites include a variety of spacecraft equipped with specific instruments for various scientific and technological missions. These include communications satellites like Starlink; space stations such as the ISS; scientific satellites like the Hubble; Earth observation satellites from companies like Planet Labs, Umbra, and HawkEye 360; GPS; miniature CubeSats for education and research; and military/defense satellites.

Loading next visibility...
Identifier
2865, 1967-066D
Orbit
GEO
Last TLE update
1 day ago
Origin
Manufacturer
Philco-Ford WDL
Mission
Non-operational Defense Communications
Bus & Motor
IDCSP, Unknown motor
Mass
68 kg wet, 68 kg dry
Launch date (UTC)
1967-07-01 (58 years ago)
Launch vehicle
TITAN IIIC
Launch site
Air Force Eastern Test Range (AFETR)
Object type
Payload
Rocket body
Debris
Shape & HBR
Poly, Unknown HBR
Radar Cross Section
0.926 m², Medium (>0.1 m² and < 1m²)

Expand to show TLE details & history

TLE from 1 day ago
0 OPS 9334 (DATS)
1 02865U 67066D   25185.50906426 -.00000035  00000-0  00000-0 0  9998
2 02865   1.9281 107.8750 0054478 207.0262 305.9488  1.09623745126350
Epoch: 2025-07-04T12:13Z
TLE epoch observation values (Epoch: 2025-07-04T12:13:03.152Z)
Latitude
0.8749°
Longitude
154.33999°
Altitude
33,225.349 km
Speed
3.178 km/s
True Right ascension
17h 21m 27s
True Declination
0° 52' 26"
Sunlit
Object was in daylight at epoch
Visualization orbit readout
Latitude
-1.91033°
Longitude
-80.13°
Altitude
33,281.827 km
Speed
3.173 km/s
Apparent Right ascension
01h 17m 56s
Apparent Declination
-8° 13' 42"
Sunlit
Object is in daylight
Visualization observer readout
Local Sidereal Time
05:36:04
Azimuth
246.805° WSW
Elevation
13.568°
Doppler factor
1
Orbital elements
Apogee altitude
33,570.685 km
Perigee altitude
33,137.777 km
Semi-major axis
39,732.368 km
Eccentricity
0.00545
Inclination
1.9281°
RAAN
107.875°
Arg. of periapsis
207.0262°
True anomaly
Unknown
Mean anomaly
305.9488°
Eccentric anomaly
Unknown
Mean motion
0.27405 °/min
Orbital period
1,313.64 mins
BSTAR
0
Loading historical data...
2865 neighbors
Loading maneuver chart data...
Loading SW <> Apogee altitude chart data...
Loading historical data...
Loading historical data...
Loading historical data...
Loading historical data...
Loading historical data...
Loading historical data...
Loading historical data...

OPS 9334 (DATS) Visibility forecast

Observer location: undefined°, undefined°

Span
Click to sort rows by Start time (UTC) header in descending order
Start Az.
Max El. time (UTC)
Max El. Az.
Max El.
End time (UTC)
End Az.
1440 mins2025-07-05 17:40:39.594Z246.79° WSW2025-07-06 17:40:39.594Z214.454° SW30.173°2025-07-06 17:40:39.594Z214.454° SW
|